Richlands, NC

5:54 AM EST on December 07, 2016 (GMT -0500)
Ellis

Weather History for KOAJ - March, 2013

Change the Weather History Date:

Tuesday, March 5, 2013

  Actual Average Record
Temperature  
Mean Temperature 45 °F -  
Max Temperature 64 °F 58 °F 82 °F (2015)
Min Temperature 26 °F 36 °F 19 °F (2002)
Degree Days  
Heating Degree Days 20    
Moisture  
Dew Point 34 °F    
Average Humidity 60    
Maximum Humidity 93    
Minimum Humidity 32    
Precipitation  
Precipitation 0.00 in - - ()
Sea Level Pressure  
Sea Level Pressure 29.96 in    
Wind  
Wind Speed 5 mph (SSW)    
Max Wind Speed 18 mph    
Max Gust Speed 22 mph    
Visibility 10 miles    
Events      
Averages and records for this station are not official NWS values.
T = Trace of Precipitation, MM = Missing Value Source: NWS Daily Summary

Daily Weather History Graph

Daily Weather History Graph

Search for Another Location

Airport or City:

Trip Planner

Search our weather history database for the weather conditions in past years. The results will help you decide how hot, cold, wet, or windy it might be!

Date:

Astronomy

Mar. 05, 2013 Rise Set
Actual Time 6:34 AM EST 6:09 PM EST
Civil Twilight 6:09 AM EST 6:35 PM EST
Nautical Twilight 5:39 AM EST 7:04 PM EST
Astronomical Twilight 5:10 AM EST 7:33 PM EST
Moon 1:34 AM EST (3/5) 11:57 AM EST (3/5)
Length of Visible Light 12h 26m
Length of Day
11h 35m
Last Quarter, 41% of the Moon is Illuminated
Mar 5
Last Quarter
Mar 11
New
Mar 19
First Quarter
Mar 27
Full
Apr 3
Last Quarter

Hourly Weather History & Observations

Time (EST) Temp. Windchill Dew Point Humidity Pressure Visibility Wind Dir Wind Speed Gust Speed Precip Events Conditions
12:15 AM 26.6 °F 21.2 °F 23.0 °F 86% 30.10 in 10.0 mi SW 4.6 mph - N/A   Clear
12:35 AM 28.4 °F 23.3 °F 24.8 °F 86% 30.10 in 10.0 mi SSW 4.6 mph - N/A   Clear
12:55 AM 28.4 °F - 23.0 °F 80% 30.10 in 10.0 mi Calm Calm - N/A   Clear
1:15 AM 30.2 °F - 21.2 °F 69% 30.10 in 10.0 mi Calm Calm - N/A   Clear
2:35 AM 30.2 °F - 24.8 °F 80% 30.09 in 10.0 mi Calm Calm - N/A   Clear
2:55 AM 30.2 °F - 24.8 °F 80% 30.09 in 10.0 mi Calm Calm - N/A   Clear
3:15 AM 28.4 °F - 24.8 °F 86% 30.09 in 10.0 mi Calm Calm - N/A   Clear
3:35 AM 28.4 °F - 24.8 °F 86% 30.09 in 10.0 mi Calm Calm - N/A   Clear
3:55 AM 28.4 °F - 24.8 °F 86% 30.09 in 10.0 mi Calm Calm - N/A   Clear
4:15 AM 28.4 °F - 24.8 °F 86% 30.10 in 10.0 mi Calm Calm - N/A   Clear
4:35 AM 28.4 °F - 24.8 °F 86% 30.10 in 10.0 mi Calm Calm - N/A   Clear
4:55 AM 28.4 °F - 24.8 °F 86% 30.11 in 10.0 mi Calm Calm - N/A   Partly Cloudy
5:15 AM 30.2 °F - 26.6 °F 86% 30.12 in 10.0 mi Calm Calm - N/A   Mostly Cloudy
5:35 AM 30.2 °F - 26.6 °F 86% 30.12 in 10.0 mi Calm Calm - N/A   Partly Cloudy
5:55 AM 30.2 °F - 26.6 °F 86% 30.11 in 10.0 mi Calm Calm - N/A   Clear
6:15 AM 32.0 °F - 24.8 °F 75% 30.12 in 10.0 mi Calm Calm - N/A   Clear
6:35 AM 30.2 °F - 26.6 °F 86% 30.12 in 10.0 mi Calm Calm - N/A   Clear
6:55 AM 30.2 °F - 26.6 °F 86% 30.12 in 10.0 mi Calm Calm - N/A   Clear
7:15 AM 30.2 °F - 28.4 °F 93% 30.12 in 10.0 mi Calm Calm - N/A   Clear
7:35 AM 33.8 °F - 28.4 °F 81% 30.12 in 10.0 mi Calm Calm - N/A   Clear
8:15 AM 39.2 °F 35.9 °F 32.0 °F 75% 30.12 in 10.0 mi SW 4.6 mph - N/A   Clear
8:35 AM 44.6 °F 43.1 °F 33.8 °F 66% 30.10 in 10.0 mi SSW 3.5 mph - N/A   Clear
8:55 AM 48.2 °F - 33.8 °F 58% 30.10 in 10.0 mi SSW 8.1 mph - N/A   Clear
9:15 AM 51.8 °F - 32.0 °F 47% 30.09 in 10.0 mi SSW 9.2 mph - N/A   Clear
9:35 AM 53.6 °F - 30.2 °F 41% 30.09 in 10.0 mi SSW 10.4 mph - N/A   Clear
9:55 AM 55.4 °F - 30.2 °F 38% 30.08 in 10.0 mi SSW 9.2 mph 16.1 mph N/A   Clear
10:15 AM 57.2 °F - 30.2 °F 36% 30.08 in 10.0 mi SSW 11.5 mph - N/A   Clear
10:35 AM 59.0 °F - 30.2 °F 34% 30.07 in 10.0 mi SSW 10.4 mph - N/A   Clear
10:55 AM 60.8 °F - 32.0 °F 34% 30.05 in 10.0 mi SSW 10.4 mph - N/A   Clear
11:15 AM 62.6 °F - 32.0 °F 32% 30.04 in 10.0 mi SW 11.5 mph - N/A   Clear
11:35 AM 62.6 °F - 32.0 °F 32% 30.03 in 10.0 mi SW 10.4 mph - N/A   Partly Cloudy
11:55 AM 62.6 °F - 32.0 °F 32% 30.02 in 10.0 mi South 10.4 mph 16.1 mph N/A   Mostly Cloudy
12:15 PM 62.6 °F - 32.0 °F 32% 30.02 in 10.0 mi South 5.8 mph - N/A   Overcast
12:35 PM 62.6 °F - 32.0 °F 32% 30.00 in 10.0 mi South 11.5 mph - N/A   Overcast
12:55 PM 64.4 °F - 33.8 °F 32% 29.99 in 10.0 mi South 9.2 mph - N/A   Overcast
1:15 PM 62.6 °F - 33.8 °F 34% 29.98 in 10.0 mi SSW 8.1 mph - N/A   Overcast
1:35 PM 62.6 °F - 33.8 °F 34% 29.96 in 10.0 mi SSW 8.1 mph - N/A   Overcast
1:55 PM 62.6 °F - 35.6 °F 37% 29.95 in 10.0 mi South 5.8 mph - N/A   Overcast
2:15 PM 62.6 °F - 35.6 °F 37% 29.94 in 10.0 mi SSW 11.5 mph - N/A   Overcast
2:35 PM 62.6 °F - 35.6 °F 37% 29.94 in 10.0 mi South 9.2 mph 17.3 mph N/A   Overcast
2:55 PM 62.6 °F - 35.6 °F 37% 29.93 in 10.0 mi SSW 11.5 mph - N/A   Overcast
3:15 PM 62.6 °F - 35.6 °F 37% 29.92 in 10.0 mi SSW 13.8 mph 19.6 mph N/A   Overcast
3:35 PM 60.8 °F - 37.4 °F 42% 29.91 in 10.0 mi SSW 9.2 mph 17.3 mph N/A   Overcast
3:55 PM 60.8 °F - 37.4 °F 42% 29.91 in 10.0 mi South 18.4 mph 21.9 mph N/A   Overcast
4:15 PM 60.8 °F - 39.2 °F 45% 29.90 in 10.0 mi SW 6.9 mph - N/A   Overcast
4:35 PM 59.0 °F - 37.4 °F 45% 29.90 in 10.0 mi SSW 11.5 mph - N/A   Overcast
4:55 PM 60.8 °F - 39.2 °F 45% 29.89 in 10.0 mi South 6.9 mph - N/A   Overcast
5:15 PM 57.2 °F - 37.4 °F 48% 29.88 in 10.0 mi South 3.5 mph - N/A   Scattered Clouds
5:35 PM 57.2 °F - 37.4 °F 48% 29.88 in 10.0 mi South 6.9 mph - N/A   Partly Cloudy
5:55 PM 55.4 °F - 37.4 °F 51% 29.88 in 10.0 mi South 3.5 mph - N/A   Clear
6:15 PM 55.4 °F - 39.2 °F 54% 29.86 in 10.0 mi SSE 4.6 mph - N/A   Clear
6:35 PM 53.6 °F - 39.2 °F 58% 29.84 in 10.0 mi SE 4.6 mph - N/A   Clear
6:55 PM 53.6 °F - 39.2 °F 58% 29.85 in 10.0 mi South 4.6 mph - N/A   Partly Cloudy
7:15 PM 53.6 °F - 39.2 °F 58% 29.84 in 10.0 mi South 4.6 mph - N/A   Partly Cloudy
7:35 PM 53.6 °F - 39.2 °F 58% 29.82 in 10.0 mi South 5.8 mph - N/A   Mostly Cloudy
7:55 PM 53.6 °F - 41.0 °F 62% 29.81 in 10.0 mi South 8.1 mph - N/A   Overcast
8:15 PM 55.4 °F - 41.0 °F 58% 29.80 in 10.0 mi South 11.5 mph - N/A   Overcast
8:35 PM 55.4 °F - 42.8 °F 63% 29.79 in 10.0 mi SSW 11.5 mph 20.7 mph N/A   Overcast
8:55 PM 57.2 °F - 44.6 °F 63% 29.76 in 10.0 mi South 13.8 mph - N/A   Mostly Cloudy
9:15 PM 57.2 °F - 42.8 °F 59% 29.74 in 10.0 mi South 11.5 mph - N/A   Partly Cloudy
9:35 PM 57.2 °F - 44.6 °F 63% 29.73 in 10.0 mi South 13.8 mph 20.7 mph N/A   Scattered Clouds
9:55 PM 57.2 °F - 44.6 °F 63% 29.72 in 10.0 mi South 12.7 mph - N/A   Mostly Cloudy
10:15 PM 57.2 °F - 46.4 °F 67% 29.70 in 10.0 mi South 15.0 mph - N/A   Overcast
10:35 PM 57.2 °F - 46.4 °F 67% 29.69 in 10.0 mi South 13.8 mph 20.7 mph N/A   Mostly Cloudy
10:55 PM 57.2 °F - 48.2 °F 72% 29.67 in 10.0 mi South 11.5 mph 19.6 mph N/A   Mostly Cloudy
11:15 PM 55.4 °F - 50.0 °F 82% 29.66 in 10.0 mi South 13.8 mph - N/A   Overcast
11:35 PM 55.4 °F - 51.8 °F 88% 29.65 in 9.0 mi South 13.8 mph 19.6 mph N/A   Mostly Cloudy
11:55 PM 55.4 °F - 51.8 °F 88% 29.63 in 9.0 mi South 10.4 mph - N/A   Mostly Cloudy